Showing default

ICEYE-X47, 62389

Orbit data source: Space-Track

ICEYE-X47, 62389 is a payload satellite owned by ICEYE (FI) in LEO that was launched on Sat, 21 Dec 2024 UTC via an FALCON 9 launch vehicle from the Air Force Western Test Range (AFWTR). Payload-class satellites include a variety of spacecraft equipped with specific instruments for various scientific and technological missions. These include communications satellites like Starlink; space stations such as the ISS; scientific satellites like the Hubble; Earth observation satellites from companies like Planet Labs, Umbra, and HawkEye 360; GPS; miniature CubeSats for education and research; and military/defense satellites.

Loading next visibility...
Identifier
62389, 2024-247N
Orbit
LEO
Country
Flag of FIFI / FIN
Related business
Manufacturer
ICEYE
Mission
Operational Commercial Radar Imaging
Bus & Motor
ICEYE, Unknown motor
Mass
80 kg wet, 80 kg dry
Launch date (UTC)
2024-12-21 (1 year ago)
Launch vehicle
FALCON 9
Launch site
Air Force Western Test Range (AFWTR)
Object type
Payload
Rocket body
Debris
Shape & HBR
Box + 1 Pan, 0.8 m
Radar Cross Section
0.776 m², Medium (>0.1 m² and < 1m²)

Expand to show TLE details & history
Last TLE update: 1 day ago

TLE from 1 day ago
0 ICEYE-X47
1 62389U 24247N   25348.77292549  .00008120  00000-0  49495-3 0  9999
2 62389  44.9965 260.3262 0000806 350.4450   9.6411 15.10822743 54264
Epoch: 2025-12-14T18:33Z
TLE epoch observation values (Epoch: 2025-12-14T18:33:00.762Z)
Latitude
-0.00002°
Longitude
-101.60803°
Altitude
533.139 km
Speed
7.598 km/s
True Right ascension
17h 21m 18s
True Declination
0° 00' 00"
Sunlit
Object was in daylight at epoch
Visualization orbit readout
Latitude
Unknown
Longitude
Unknown
Altitude
Unknown
Speed
Unknown
Apparent Right ascension
Unknown
Apparent Declination
Unknown
Sunlit
N/A
Visualization observer readout
Local Sidereal Time
17:09:20
Azimuth
Unknown
Elevation
Unknown
Doppler factor
Unknown
Orbital elements
Apogee altitude
535.845 km
Perigee altitude
534.73 km
Semi-major axis
6,913.425 km
Eccentricity
0.00008
Inclination
44.9965°
RAAN
260.3262°
Arg. of periapsis
350.445°
True anomaly
9.64265°
Mean anomaly
9.6411°
Eccentric anomaly
9.64187°
Mean motion
3.77575 °/min
Orbital period
95.35 mins
BSTAR
0.00049495
Loading maneuver chart data...
Computing Atmospheric mass density...
Loading historical data...
Loading historical data...
Loading historical data...
Loading historical data...
Loading historical data...
Loading historical data...
Loading historical data...

Documentation

Showing up to 5 results
|